Regional Weather Roundup
Issued by NWS

Home | Current Version | Previous Version | Text Only | Print | Product List | Glossary Off
Versions: 1 2 3 4 5 6 7 8 9 10 11 12 13 14 15 16 17 18 19 20 21 22 23 24 25 26 27 28 29 30 31 32 33 34 35 36 37 38 39 40 41 42 43 44 45 46 47 48 49 50

000
ASUS43 KMKX 252010
RWRWI

WISCONSIN REGIONAL WEATHER ROUNDUP
NATIONAL WEATHER SERVICE MILWAUKEE/SULLIVAN WI
200 PM CST SUN FEB 25 2018

NOTE: "FAIR" INDICATES FEW OR NO CLOUDS BELOW 12,000 FEET WITH NO
SIGNIFICANT WEATHER AND/OR OBSTRUCTIONS TO VISIBILITY.

WIZ001-002-006>008-014>016-023>028-252100-
NORTHWEST WISCONSIN

CITY           SKY/WX    TMP DP  RH WIND       PRES   REMARKS
SUPERIOR ARPT  CLOUDY    30  18  62 W20G25    29.60R WCI  17
ASHLAND        CLOUDY    27  19  72 SW20G28   29.58R WCI  13
HAYWARD        CLOUDY    24  17  74 SW15G23   29.63R WCI  11
SIREN          FAIR      26  16  64 SW17G25   29.69R WCI  14
CUMBERLAND     FAIR      25  14  63 W22       29.69R WCI  10
RICE LAKE      FAIR      27  16  64 W16G24    29.71R WCI  15
CHETEK         PTSUNNY   27  16  62 W9G20     29.71R WCI  18
LADYSMITH      PTSUNNY   27  17  66 W16G23    29.67S WCI  15
EAU CLAIRE     FAIR      27  16  63 W17G31    29.74R WCI  14
MENOMONIE      FAIR      28  16  62 SW20      29.74R WCI  14
NEW RICHMOND   FAIR      27  16  64 W15G22    29.74R WCI  15
OSCEOLA        PTSUNNY   27  17  65 W18       29.77R WCI  14
$$

WIZ003>005-009-010-017-018-252100-
NORTH CENTRAL WISCONSIN

CITY           SKY/WX    TMP DP  RH WIND       PRES   REMARKS
MANITOWISH WTR CLOUDY    23  19  83 W17G25    29.55R WCI   9
ARBOR VITAE    CLOUDY    25  19  77 W21G28    29.56R WCI  10
WOODRUFF       CLOUDY    25  19  77 W21G28    29.56R WCI  10
RHINELANDER    MIX PCPN  24  18  77 W24G33    29.59R WCI   8
EAGLE RIVER    CLOUDY    23  17  78 SW23G31   29.55R HAZE    WCI   7
LAND O LAKES   FLURRIES  24  19  80 W13G21    29.54R WCI  12
PHILLIPS       CLOUDY    23  17  77 SW17G24   29.60R WCI  10
TOMAHAWK       CLOUDY    24  17  72 W15       29.63R WCI  12
MEDFORD        PTSUNNY   25  14  64 SW18G25   29.66R WCI  11
MERRILL        CLOUDY    27  18  67 W21G30    29.65R WCI  14
$$

WIZ029-030-035-036-043>047-252100-
CENTRAL WISCONSIN

CITY           SKY/WX    TMP DP  RH WIND       PRES   REMARKS
WAUSAU         PTSUNNY   28  17  63 W21G31    29.66R WCI  15
MOSINEE        PTSUNNY   27  19  74 SW18G28   29.69R WCI  13
MARSHFIELD     FAIR      28  17  63 W22G30    29.69R WCI  14
STEVENS POINT  PTSUNNY   28  21  76 SW13      29.72R WCI  17
WAUPACA        FAIR      36  23  59 SW20G25   29.73S WCI  25
WAUTOMA        FAIR      35  21  56 W24G32    29.75R WCI  23
WISC RAPIDS    PTSUNNY   30  21  69 MISG      29.75R
CAMP DOUGLAS   MOSUNNY   34  25  69 W18G28    29.78R WCI  23
$$

WIZ011>013-019>022-031-037>040-048>050-252100-
NORTHEAST WISCONSIN

CITY           SKY/WX    TMP DP  RH WIND       PRES   REMARKS
ANTIGO         CLOUDY    25  18  74 W25G32    29.63R WCI   9
SHAWANO        PTSUNNY   33  23  66 W16G23    29.68R WCI  23
OCONTO         PTSUNNY   31  22  66 SW21G32   29.67R WCI  19
STURGEON BAY   FAIR      32  22  66 W24G33    29.67R WCI  19
GREEN BAY      FAIR      35  21  56 SW21G33   29.70R WCI  24
MANITOWOC      FAIR      35  20  54 W22G31    29.74R WCI  23
APPLETON       MOSUNNY   36  18  48 W23G30    29.71R WCI  24
CLINTONVILLE   CLOUDY    32  21  64 W18G29    29.71R WCI  20
OSHKOSH        FAIR      36  22  56 SW15G28   29.74R WCI  27
$$

WIZ032>034-041-042-053>061-252100-
SOUTHWEST WISCONSIN

CITY           SKY/WX    TMP DP  RH WIND       PRES   REMARKS
LA CROSSE      FAIR      34  23  64 SW10G21   29.83R WCI  26
SPARTA         FAIR      33  23  67 SW9G21    29.81R WCI  25
VIROQUA        FAIR      32  25  74 SW17G25   29.81R WCI  21
BOSCOBEL       FAIR      39  22  50 SW18G31   29.88R WCI  30
PRAIRIE DU CHI FAIR      37  22  54 SW13G18   29.89R WCI  28
PLATTEVILLE    FAIR      37  27  66 SW21G29   29.89R WCI  27
$$

WIZ056-057-062-063-064-067-068-252100-
SOUTH CENTRAL WISCONSIN

CITY           SKY/WX    TMP DP  RH WIND       PRES   REMARKS
REEDSBURG      FAIR      36  21  53 SW15G28   29.80R WCI  27
BARABOO/DELLS  FAIR      37  21  53 W16G26    29.80R WCI  27
LONE ROCK      FAIR      38  22  52 W16G29    29.85R WCI  29
MINERAL POINT  FAIR      37  27  65 W16G28    29.85R WCI  28
MADISON        FAIR      37  22  54 SW13G26   29.85R WCI  29
MIDDLETON      FAIR      39  23  53 SW22G30   29.83R WCI  28
WATERTOWN      FAIR      37  22  55 SW20G29   29.83R WCI  26
MONROE         FAIR      37  23  56 W28G37    29.87R WCI  25
JANESVILLE     MOSUNNY   41  25  52 MISG      29.88R
$$

WIZ051-052-058>065-066-070>072-252100-
SOUTHEAST WISCONSIN

CITY           SKY/WX    TMP DP  RH WIND       PRES   REMARKS
MILWAUKEE      FAIR      41  21  44 SW26G41   29.84R
WAUKESHA       SUNNY     36  19  51 SW17G28   29.84R WCI  25
MILWAUKEE/TIMM SUNNY     37  19  48 W22G32    29.82R WCI  27
RACINE         FAIR      41  22  46 W22G35    29.87R
BURLINGTON     FAIR      39  26  58 SW21G30   29.87R WCI  29
KENOSHA        FAIR      42  23  46 W26G39    29.86R
FOND DU LAC    FAIR      36  20  52 SW20G35   29.77R WCI  25
SHEBOYGAN      FAIR      37  25  61 SW23G33   29.76R WCI  26
WEST BEND      FAIR      36  21  55 W21G33    29.79R WCI  24
JUNEAU         FAIR      35  22  60 SW23G32   29.83R WCI  23
$$

LSZ147-162-252100-
LAKE SUPERIOR

STATION/POSITION TIME  TEMP    WIND        PRES    WAVE
                       AIR SEA DIR/SP/G            HT/PER
                 (UTC) (F)     (DEG/KT/KT) (MB)    (FT/S)
DEVILS ISLAND    2000   27     240/ 36/ 44 1000.4R
SAXON HARBOR     1940   27     220/ 12/ 24 1001.4R
$$

LMZ867-665-643>646-252100-
LAKE MICHIGAN

STATION/POSITION TIME  TEMP    WIND        PRES    WAVE
                       AIR SEA DIR/SP/G            HT/PER
                 (UTC) (F)     (DEG/KT/KT) (MB)    (FT/S)
NORTHPORT PIER   1940   29                 1003.0S
KEWAUNEE LAKESHO 1942   36     250/ 18/ 28 1005.0R
SHEBOYGAN LAKESH 2000   36     250/ 25/ 31 1008.3R
PORT WASHINGTON  1940   39     250/ 20/ 32 1010.2R
KENOSHA   LAKESH 2000   41     230/ 18/ 31 1011.9
$$

TC  - TEMPERATURE IN CELSIUS
VSB - VISIBILITY IN STATUTE MILES
WCI - WIND CHILL INDEX
HX  - HEAT INDEX




USA.gov is the U.S. government's official web portal to all federal, state and local government web resources and services.